QPF
0.02 0.02 0.03 0.03 0.03 0.03 0.03 0.03 0.03 0.03 0.02 0.01 0.01 0.02 0.02 0.02 0.02 0.01 0.01 0.02 0.02 0.02 0.03 0.05 0.09 0.10 0.09 0.08 0.07 0.06 0.06 0.05 0.04 0.04 0.03 0.03 0.03 0.03
0.02 0.02 0.02 0.04 0.05 0.05 0.04 0.04 0.04 0.04 0.03 0.02 0.01 0.01 0.02 0.01 0.02 0.01 0.01 0.01 0.01 0.02 0.02 0.02 0.03 0.09 0.11 0.10 0.09 0.09 0.09 0.07 0.06 0.04 0.03 0.02 0.02 0.03
0.03 0.03 0.02 0.03 0.06 0.06 0.06 0.06 0.05 0.05 0.03 0.02 0.02 0.02 0.02 0.02 0.01 0.01 0.01 0.01 0.01 0.01 0.01 0.00 0.01 0.05 0.06 0.07 0.06 0.07 0.10 0.09 0.07 0.04 0.03 0.02 0.02 0.03
0.03 0.03 0.02 0.03 0.04 0.05 0.06 0.06 0.06 0.05 0.05 0.04 0.03 0.03 0.03 0.03 0.02 0.02 0.02 0.01 0.01 0.01 0.00 0.00 0.01 0.02 0.01 0.02 0.03 0.05 0.07 0.11 0.10 0.05 0.03 0.02 0.02 0.02
0.04 0.04 0.04 0.04 0.03 0.03 0.04 0.05 0.06 0.06 0.06 0.05 0.05 0.05 0.05 0.04 0.03 0.03 0.03 0.02 0.01 0.01 0.01 0.01 0.00 0.00 0.00 0.00 0.00 0.02 0.03 0.06 0.09 0.07 0.04 0.03 0.03 0.03
0.05 0.06 0.06 0.06 0.05 0.05 0.05 0.05 0.05 0.06 0.05 0.04 0.04 0.04 0.05 0.04 0.04 0.04 0.04 0.02 0.02 0.01 0.01 0.01 0.01 0.01 0.00 0.00 0.00 0.01 0.01 0.03 0.05 0.06 0.05 0.03 0.03 0.03
0.07 0.07 0.08 0.08 0.08 0.08 0.07 0.06 0.06 0.05 0.05 0.04 0.03 0.03 0.04 0.04 0.03 0.03 0.03 0.03 0.02 0.02 0.01 0.02 0.01 0.01 0.01 0.00 0.00 0.00 0.01 0.02 0.03 0.04 0.04 0.03 0.02 0.02
0.04 0.04 0.05 0.05 0.06 0.06 0.05 0.05 0.04 0.04 0.04 0.04 0.03 0.03 0.03 0.02 0.03 0.03 0.03 0.03 0.02 0.01 0.01 0.01 0.01 0.01 0.00 0.01 0.01 0.01 0.01 0.01 0.02 0.03 0.03 0.02 0.01 0.01
0.05 0.05 0.05 0.04 0.04 0.04 0.04 0.05 0.05 0.04 0.03 0.03 0.02 0.02 0.03 0.03 0.03 0.03 0.02 0.02 0.01 0.01 0.01 0.01 0.00 0.01 0.01 0.01 0.01 0.01 0.01 0.01 0.01 0.02 0.02 0.01 0.01 0.01
0.03 0.04 0.04 0.04 0.06 0.06 0.06 0.05 0.04 0.04 0.04 0.04 0.03 0.02 0.02 0.02 0.02 0.02 0.01 0.02 0.02 0.02 0.01 0.01 0.00 0.00 0.01 0.01 0.02 0.02 0.01 0.01 0.01 0.02 0.02 0.02 0.01 0.01
0.01 0.02 0.02 0.03 0.04 0.06 0.05 0.05 0.05 0.05 0.06 0.06 0.05 0.04 0.04 0.03 0.02 0.02 0.02 0.02 0.02 0.02 0.02 0.01 0.01 0.01 0.01 0.02 0.02 0.02 0.01 0.01 0.01 0.01 0.01 0.01 0.02 0.01
0.01 0.01 0.02 0.03 0.05 0.06 0.05 0.05 0.05 0.05 0.05 0.05 0.06 0.05 0.04 0.04 0.03 0.02 0.02 0.02 0.01 0.01 0.01 0.01 0.01 0.01 0.01 0.01 0.01 0.01 0.01 0.01 0.01 0.01 0.01 0.01 0.02 0.02
0.01 0.01 0.02 0.03 0.04 0.05 0.04 0.04 0.04 0.04 0.04 0.04 0.04 0.04 0.04 0.03 0.03 0.02 0.02 0.02 0.02 0.01 0.01 0.01 0.01 0.01 0.01 0.01 0.01 0.01 0.01 0.01 0.01 0.01 0.01 0.01 0.01 0.01
0.01 0.01 0.02 0.02 0.02 0.03 0.03 0.03 0.04 0.04 0.04 0.05 0.04 0.03 0.03 0.03 0.03 0.02 0.02 0.02 0.01 0.01 0.01 0.01 0.01 0.01 0.01 0.01 0.01 0.01 0.01 0.02 0.02 0.02 0.01 0.01 0.02 0.02
0.01 0.01 0.01 0.02 0.01 0.01 0.02 0.02 0.03 0.04 0.04 0.04 0.04 0.02 0.02 0.02 0.03 0.04 0.03 0.03 0.02 0.01 0.01 0.01 0.01 0.01 0.01 0.01 0.01 0.02 0.02 0.03 0.03 0.03 0.02 0.02 0.02 0.02
0.01 0.01 0.01 0.02 0.02 0.02 0.02 0.02 0.02 0.03 0.04 0.04 0.04 0.03 0.03 0.03 0.03 0.03 0.04 0.04 0.03 0.02 0.01 0.01 0.02 0.01 0.01 0.01 0.02 0.02 0.02 0.02 0.02 0.03 0.03 0.03 0.02 0.02
0.02 0.01 0.01 0.01 0.02 0.02 0.02 0.02 0.02 0.03 0.03 0.04 0.04 0.05 0.05 0.04 0.04 0.03 0.03 0.03 0.02 0.02 0.01 0.02 0.02 0.02 0.02 0.02 0.02 0.02 0.03 0.03 0.02 0.02 0.03 0.03 0.03 0.02
0.02 0.02 0.02 0.01 0.02 0.03 0.04 0.03 0.02 0.02 0.02 0.03 0.03 0.04 0.05 0.05 0.05 0.04 0.04 0.03 0.02 0.01 0.01 0.01 0.02 0.03 0.03 0.03 0.04 0.03 0.04 0.04 0.04 0.02 0.02 0.02 0.02 0.02
0.01 0.02 0.02 0.02 0.02 0.03 0.03 0.04 0.04 0.03 0.03 0.03 0.03 0.03 0.03 0.04 0.04 0.04 0.04 0.03 0.03 0.02 0.01 0.01 0.02 0.04 0.04 0.05 0.06 0.05 0.05 0.05 0.03 0.02 0.02 0.02 0.02 0.02
0.01 0.01 0.01 0.01 0.02 0.02 0.03 0.03 0.03 0.04 0.04 0.03 0.03 0.03 0.03 0.03 0.03 0.03 0.03 0.03 0.03 0.03 0.02 0.01 0.01 0.03 0.05 0.05 0.06 0.05 0.05 0.04 0.03 0.02 0.01 0.01 0.02 0.02
0.03 0.02 0.01 0.01 0.02 0.02 0.03 0.03 0.03 0.03 0.03 0.03 0.03 0.03 0.02 0.02 0.02 0.02 0.03 0.03 0.03 0.03 0.03 0.02 0.01 0.03 0.03 0.04 0.04 0.04 0.03 0.04 0.03 0.02 0.01 0.01 0.01 0.01
0.05 0.04 0.02 0.02 0.02 0.03 0.03 0.03 0.03 0.03 0.03 0.02 0.02 0.02 0.02 0.02 0.02 0.02 0.02 0.02 0.02 0.03 0.03 0.02 0.01 0.02 0.02 0.03 0.03 0.03 0.03 0.03 0.03 0.02 0.02 0.01 0.01 0.01
0.05 0.04 0.03 0.02 0.02 0.03 0.03 0.03 0.03 0.02 0.02 0.02 0.01 0.01 0.02 0.02 0.02 0.02 0.02 0.02 0.02 0.02 0.02 0.01 0.02 0.02 0.02 0.02 0.02 0.02 0.02 0.02 0.02 0.02 0.01 0.01 0.01 0.01
MSLP
1019.42 1019.76 1020.18 1020.66 1021.16 1021.67 1022.13 1022.54 1022.89 1023.17 1023.41 1023.61 1023.77 1023.92 1024.05 1024.16 1024.24 1024.30 1024.33 1024.35 1024.34 1024.32 1024.30 1024.26 1024.21 1024.14 1024.04 1023.91 1023.73 1023.52 1023.29 1023.05 1022.82 1022.61 1022.43 1022.28 1022.17 1022.07
1019.48 1019.78 1020.13 1020.54 1020.98 1021.42 1021.84 1022.23 1022.57 1022.88 1023.15 1023.39 1023.60 1023.79 1023.95 1024.07 1024.16 1024.21 1024.23 1024.22 1024.20 1024.16 1024.11 1024.06 1024.00 1023.93 1023.83 1023.70 1023.53 1023.34 1023.13 1022.91 1022.70 1022.51 1022.34 1022.19 1022.07 1021.95
1019.59 1019.85 1020.16 1020.51 1020.89 1021.27 1021.64 1022.00 1022.34 1022.66 1022.95 1023.23 1023.47 1023.69 1023.87 1024.01 1024.10 1024.15 1024.15 1024.12 1024.06 1023.99 1023.92 1023.84 1023.76 1023.67 1023.57 1023.44 1023.29 1023.12 1022.94 1022.76 1022.58 1022.42 1022.27 1022.14 1022.03 1021.92
1019.72 1019.97 1020.25 1020.56 1020.89 1021.22 1021.56 1021.89 1022.21 1022.53 1022.83 1023.12 1023.39 1023.63 1023.82 1023.97 1024.06 1024.09 1024.08 1024.02 1023.94 1023.84 1023.73 1023.62 1023.51 1023.40 1023.28 1023.14 1023.00 1022.85 1022.70 1022.55 1022.42 1022.30 1022.20 1022.11 1022.02 1021.92
1019.84 1020.10 1020.37 1020.65 1020.95 1021.25 1021.55 1021.85 1022.15 1022.45 1022.75 1023.04 1023.31 1023.56 1023.75 1023.90 1023.99 1024.01 1023.99 1023.92 1023.81 1023.69 1023.55 1023.41 1023.27 1023.12 1022.97 1022.82 1022.67 1022.53 1022.40 1022.28 1022.19 1022.13 1022.08 1022.04 1022.00 1021.94
1019.90 1020.18 1020.46 1020.74 1021.02 1021.29 1021.56 1021.83 1022.11 1022.39 1022.67 1022.94 1023.20 1023.43 1023.63 1023.77 1023.86 1023.89 1023.86 1023.79 1023.68 1023.54 1023.38 1023.21 1023.03 1022.86 1022.67 1022.50 1022.33 1022.18 1022.06 1021.96 1021.91 1021.89 1021.89 1021.91 1021.93 1021.94
1019.86 1020.17 1020.47 1020.75 1021.03 1021.29 1021.54 1021.78 1022.03 1022.27 1022.52 1022.77 1023.01 1023.22 1023.41 1023.55 1023.64 1023.69 1023.67 1023.62 1023.52 1023.38 1023.22 1023.04 1022.84 1022.63 1022.41 1022.20 1022.01 1021.84 1021.71 1021.62 1021.58 1021.60 1021.65 1021.72 1021.80 1021.87
1019.68 1020.02 1020.35 1020.65 1020.93 1021.19 1021.42 1021.65 1021.86 1022.08 1022.29 1022.51 1022.72 1022.91 1023.09 1023.24 1023.34 1023.41 1023.43 1023.40 1023.33 1023.23 1023.08 1022.90 1022.70 1022.47 1022.23 1021.98 1021.75 1021.55 1021.40 1021.30 1021.27 1021.29 1021.37 1021.49 1021.62 1021.75
1019.36 1019.73 1020.08 1020.41 1020.70 1020.96 1021.20 1021.41 1021.60 1021.79 1021.97 1022.16 1022.35 1022.53 1022.70 1022.85 1022.98 1023.08 1023.14 1023.16 1023.14 1023.08 1022.97 1022.82 1022.62 1022.39 1022.14 1021.87 1021.61 1021.37 1021.19 1021.06 1021.00 1021.02 1021.11 1021.24 1021.41 1021.58
1018.93 1019.32 1019.70 1020.04 1020.35 1020.63 1020.87 1021.08 1021.27 1021.44 1021.61 1021.78 1021.94 1022.11 1022.28 1022.44 1022.59 1022.73 1022.84 1022.91 1022.95 1022.95 1022.89 1022.78 1022.62 1022.40 1022.15 1021.87 1021.59 1021.33 1021.11 1020.94 1020.85 1020.84 1020.90 1021.02 1021.19 1021.37
1018.45 1018.85 1019.24 1019.61 1019.95 1020.24 1020.51 1020.73 1020.92 1021.09 1021.25 1021.41 1021.56 1021.72 1021.89 1022.06 1022.23 1022.39 1022.55 1022.68 1022.77 1022.82 1022.83 1022.77 1022.65 1022.47 1022.24 1021.98 1021.69 1021.41 1021.15 1020.95 1020.81 1020.75 1020.77 1020.85 1020.99 1021.15
1017.97 1018.38 1018.79 1019.18 1019.54 1019.87 1020.15 1020.40 1020.61 1020.79 1020.95 1021.10 1021.25 1021.41 1021.57 1021.74 1021.92 1022.10 1022.28 1022.44 1022.58 1022.68 1022.74 1022.74 1022.67 1022.54 1022.35 1022.11 1021.84 1021.56 1021.28 1021.05 1020.86 1020.74 1020.70 1020.72 1020.80 1020.93
1017.55 1017.97 1018.39 1018.80 1019.19 1019.54 1019.85 1020.12 1020.35 1020.55 1020.72 1020.87 1021.02 1021.17 1021.32 1021.48 1021.65 1021.83 1022.01 1022.18 1022.34 1022.48 1022.58 1022.63 1022.62 1022.55 1022.41 1022.21 1021.97 1021.70 1021.43 1021.17 1020.94 1020.77 1020.65 1020.60 1020.61 1020.68
1017.24 1017.66 1018.09 1018.50 1018.90 1019.27 1019.60 1019.89 1020.13 1020.35 1020.53 1020.69 1020.84 1020.97 1021.11 1021.25 1021.39 1021.55 1021.71 1021.88 1022.04 1022.19 1022.31 1022.40 1022.43 1022.41 1022.33 1022.19 1021.99 1021.76 1021.49 1021.23 1020.97 1020.75 1020.58 1020.46 1020.40 1020.39
1017.01 1017.43 1017.85 1018.27 1018.66 1019.03 1019.36 1019.65 1019.91 1020.13 1020.33 1020.49 1020.63 1020.76 1020.87 1020.99 1021.10 1021.22 1021.35 1021.49 1021.63 1021.77 1021.90 1022.00 1022.08 1022.10 1022.08 1021.99 1021.85 1021.65 1021.42 1021.16 1020.90 1020.65 1020.42 1020.24 1020.12 1020.05
1016.83 1017.24 1017.64 1018.03 1018.40 1018.74 1019.06 1019.34 1019.60 1019.82 1020.02 1020.18 1020.32 1020.44 1020.55 1020.64 1020.72 1020.81 1020.90 1021.00 1021.11 1021.23 1021.35 1021.46 1021.55 1021.61 1021.63 1021.60 1021.51 1021.36 1021.16 1020.93 1020.67 1020.41 1020.16 1019.94 1019.77 1019.65
1016.62 1017.01 1017.37 1017.72 1018.04 1018.34 1018.61 1018.87 1019.11 1019.33 1019.52 1019.70 1019.85 1019.97 1020.07 1020.16 1020.23 1020.29 1020.35 1020.42 1020.50 1020.59 1020.69 1020.80 1020.90 1020.98 1021.03 1021.04 1021.00 1020.90 1020.74 1020.54 1020.30 1020.04 1019.79 1019.55 1019.35 1019.20
1016.31 1016.65 1016.96 1017.24 1017.50 1017.73 1017.96 1018.17 1018.38 1018.59 1018.79 1018.98 1019.15 1019.30 1019.42 1019.53 1019.60 1019.66 1019.71 1019.76 1019.82 1019.89 1019.98 1020.07 1020.18 1020.27 1020.34 1020.38 1020.37 1020.30 1020.19 1020.02 1019.80 1019.57 1019.32 1019.09 1018.88 1018.73
1015.83 1016.12 1016.36 1016.56 1016.73 1016.90 1017.06 1017.23 1017.42 1017.62 1017.83 1018.05 1018.26 1018.45 1018.61 1018.75 1018.86 1018.94 1019.01 1019.06 1019.12 1019.18 1019.26 1019.35 1019.44 1019.54 1019.62 1019.67 1019.69 1019.65 1019.56 1019.43 1019.24 1019.03 1018.81 1018.59 1018.39 1018.24
1015.16 1015.38 1015.54 1015.66 1015.76 1015.85 1015.96 1016.09 1016.26 1016.46 1016.69 1016.94 1017.20 1017.45 1017.68 1017.87 1018.04 1018.16 1018.26 1018.34 1018.41 1018.48 1018.56 1018.64 1018.74 1018.83 1018.91 1018.97 1019.00 1018.98 1018.92 1018.81 1018.65 1018.47 1018.27 1018.07 1017.89 1017.76
1014.28 1014.43 1014.52 1014.57 1014.60 1014.64 1014.70 1014.81 1014.97 1015.18 1015.44 1015.74 1016.05 1016.36 1016.66 1016.92 1017.15 1017.33 1017.48 1017.60 1017.70 1017.79 1017.87 1017.96 1018.06 1018.15 1018.23 1018.30 1018.33 1018.32 1018.28 1018.18 1018.05 1017.89 1017.71 1017.54 1017.39 1017.27
1013.23 1013.32 1013.36 1013.35 1013.34 1013.34 1013.38 1013.48 1013.65 1013.88 1014.17 1014.51 1014.87 1015.24 1015.60 1015.93 1016.21 1016.45 1016.65 1016.81 1016.95 1017.06 1017.17 1017.27 1017.37 1017.47 1017.56 1017.62 1017.66 1017.66 1017.63 1017.55 1017.44 1017.30 1017.15 1017.00 1016.86 1016.75
1012.05 1012.10 1012.10 1012.07 1012.04 1012.04 1012.08 1012.19 1012.37 1012.63 1012.95 1013.32 1013.73 1014.14 1014.53 1014.90 1015.24 1015.52 1015.76 1015.96 1016.12 1016.27 1016.40 1016.52 1016.64 1016.74 1016.84 1016.91 1016.96 1016.98 1016.95 1016.90 1016.80 1016.68 1016.55 1016.42 1016.29 1016.19
Thickness
5682 5681 5681 5681 5681 5681 5681 5679 5676 5673 5674 5676 5678 5680 5680 5680 5680 5679 5679 5678 5678 5677 5676 5676 5676 5676 5675 5675 5674 5673 5672 5671 5670 5669 5668 5667 5666 5664
5678 5677 5677 5677 5678 5678 5677 5677 5676 5673 5672 5673 5674 5676 5676 5676 5676 5675 5675 5675 5674 5674 5673 5672 5672 5672 5672 5671 5671 5670 5669 5668 5667 5666 5665 5664 5662 5661
5674 5674 5673 5673 5673 5674 5673 5672 5671 5670 5669 5670 5670 5671 5672 5672 5672 5671 5671 5671 5671 5670 5670 5669 5669 5668 5668 5667 5667 5666 5665 5664 5664 5663 5661 5660 5659 5658
5670 5669 5669 5669 5669 5669 5668 5668 5668 5667 5666 5665 5665 5666 5667 5667 5667 5667 5667 5667 5666 5667 5667 5666 5665 5665 5664 5664 5663 5662 5662 5661 5660 5659 5658 5657 5656 5654
5665 5665 5665 5664 5664 5664 5664 5664 5664 5663 5662 5661 5660 5660 5661 5662 5662 5662 5662 5662 5662 5663 5663 5663 5662 5661 5661 5660 5660 5659 5659 5658 5657 5656 5655 5654 5653 5652
5661 5661 5661 5660 5660 5660 5660 5659 5659 5658 5657 5656 5655 5655 5655 5656 5656 5656 5656 5657 5657 5658 5658 5659 5659 5658 5657 5657 5657 5656 5656 5655 5654 5653 5652 5651 5650 5649
5656 5656 5656 5657 5657 5656 5656 5655 5654 5653 5652 5651 5650 5650 5650 5650 5650 5651 5651 5651 5652 5653 5653 5655 5655 5655 5654 5654 5654 5654 5653 5652 5652 5651 5650 5648 5647 5646
5650 5650 5651 5652 5652 5652 5653 5652 5652 5650 5649 5647 5646 5646 5646 5646 5646 5646 5645 5645 5646 5648 5647 5649 5650 5651 5652 5652 5652 5652 5651 5650 5649 5648 5647 5645 5644 5643
5645 5645 5646 5647 5647 5647 5648 5647 5647 5647 5647 5646 5644 5644 5644 5644 5643 5641 5641 5640 5641 5643 5642 5645 5646 5647 5649 5650 5650 5649 5649 5648 5647 5645 5644 5643 5641 5640
5641 5641 5641 5642 5642 5642 5642 5642 5642 5643 5643 5642 5642 5643 5643 5641 5640 5639 5638 5636 5636 5637 5637 5638 5641 5643 5646 5646 5647 5646 5646 5645 5644 5643 5641 5639 5638 5637
5636 5637 5637 5637 5637 5637 5637 5637 5638 5639 5639 5638 5638 5638 5638 5636 5634 5632 5631 5630 5631 5633 5632 5633 5637 5638 5640 5643 5643 5643 5642 5642 5641 5639 5638 5636 5634 5633
5631 5631 5631 5631 5631 5631 5631 5631 5631 5633 5633 5633 5632 5632 5632 5631 5629 5628 5628 5626 5626 5627 5629 5628 5631 5631 5633 5637 5638 5638 5638 5638 5637 5635 5634 5633 5630 5628
5625 5625 5626 5625 5625 5625 5626 5626 5627 5627 5627 5627 5627 5627 5626 5626 5625 5624 5624 5624 5623 5624 5626 5624 5625 5625 5625 5628 5631 5633 5633 5633 5633 5632 5631 5629 5627 5625
5619 5620 5620 5619 5619 5619 5620 5621 5621 5620 5621 5621 5621 5621 5621 5622 5622 5622 5621 5621 5622 5623 5622 5620 5620 5620 5620 5621 5625 5628 5628 5628 5628 5628 5627 5625 5624 5622
5613 5613 5613 5613 5613 5614 5614 5615 5615 5615 5615 5615 5615 5616 5617 5618 5617 5617 5618 5617 5617 5618 5618 5618 5617 5617 5616 5617 5619 5621 5622 5624 5623 5623 5622 5621 5621 5619
5605 5605 5605 5605 5605 5606 5607 5607 5608 5609 5609 5610 5610 5611 5611 5611 5612 5612 5612 5612 5612 5614 5615 5614 5614 5613 5613 5614 5615 5616 5617 5617 5619 5617 5617 5616 5616 5616
5596 5596 5596 5597 5597 5598 5599 5600 5601 5601 5602 5603 5603 5604 5604 5605 5606 5606 5606 5606 5607 5609 5610 5610 5609 5609 5609 5610 5610 5612 5613 5613 5613 5612 5611 5612 5613 5612
5587 5588 5588 5589 5589 5590 5591 5592 5593 5594 5595 5596 5596 5597 5598 5598 5600 5600 5600 5600 5602 5603 5604 5604 5603 5603 5604 5605 5606 5607 5608 5608 5608 5607 5607 5607 5609 5610
5580 5581 5581 5581 5582 5582 5583 5584 5586 5587 5587 5588 5589 5589 5590 5591 5592 5593 5594 5594 5596 5598 5599 5598 5597 5598 5598 5601 5605 5602 5603 5603 5602 5602 5602 5603 5604 5606
5573 5573 5573 5574 5574 5575 5576 5577 5578 5579 5579 5580 5581 5582 5583 5584 5585 5586 5587 5588 5590 5592 5593 5593 5593 5593 5594 5596 5598 5599 5598 5598 5598 5598 5598 5597 5597 5598
5566 5566 5567 5567 5568 5568 5569 5570 5571 5571 5572 5572 5574 5575 5575 5576 5578 5580 5581 5581 5582 5584 5586 5588 5588 5587 5587 5587 5589 5593 5593 5592 5593 5592 5592 5591 5591 5592
5560 5560 5561 5561 5561 5561 5562 5562 5563 5563 5564 5565 5566 5567 5567 5568 5570 5572 5574 5575 5576 5578 5579 5581 5581 5580 5580 5581 5584 5586 5587 5586 5585 5585 5584 5586 5586 5587
5554 5554 5554 5554 5554 5554 5555 5555 5556 5556 5557 5558 5558 5559 5560 5561 5563 5564 5566 5568 5569 5571 5572 5574 5574 5574 5575 5575 5576 5578 5579 5579 5578 5578 5579 5580 5580 5581